This is the latest recevied weather packets stored in our database for station/object MKSRDG. If no packets are shown the sender has not sent any weather packets the latest 10 day(s).
| Time | Temp. | Humidity | Pressure | Rain* | Wind** | Luminosity | Snow |
|---|---|---|---|---|---|---|---|
| 1777674297 | 17.78° C | 64% | 1014.6 hPa | 0 mm | - | 652 W/m² | - |
| 1777673397 | 17.78° C | 68% | 1014.8 hPa | 0 mm | - | 671 W/m² | - |
| 1777672496 | 17.78° C | 68% | 1014.8 hPa | 0 mm | - | 717 W/m² | - |
| 1777671597 | 16.67° C | 69% | 1015 hPa | 0 mm | - | 766 W/m² | - |
| 1777670697 | 17.22° C | 73% | 1015.1 hPa | 0 mm | - | 733 W/m² | - |
| 1777669797 | 16.67° C | 73% | 1015.4 hPa | 0 mm | - | 803 W/m² | - |
| 1777668897 | 16.67° C | 75% | 1015.4 hPa | 0 mm | - | 817 W/m² | - |
| 1777667997 | 16.67° C | 75% | 1015.6 hPa | 0 mm | - | 687 W/m² | - |
| 1777667097 | 16.67° C | 79% | 1015.7 hPa | 0 mm | - | 1013 W/m² | - |
| 1777666197 | 15.56° C | 77% | 1015.9 hPa | 0 mm | - | 657 W/m² | - |
| 1777665297 | 15.56° C | 77% | 1015.9 hPa | 0 mm | - | 879 W/m² | - |
| 1777664397 | 16.11° C | 77% | 1015.9 hPa | 0 mm | - | 972 W/m² | - |
| 1777663497 | 15° C | 80% | 1016 hPa | 0 mm | - | 896 W/m² | - |
| 1777662597 | 15° C | 79% | 1016.1 hPa | 0 mm | - | 981 W/m² | - |
| 1777661697 | 14.44° C | 80% | 1016 hPa | 0 mm | - | 754 W/m² | - |
| 1777660797 | 14.44° C | 82% | 1016 hPa | 0 mm | - | 612 W/m² | - |
| 1777659897 | 15° C | 80% | 1016 hPa | 0 mm | - | 675 W/m² | - |
| 1777658997 | 13.89° C | 79% | 1016 hPa | 0 mm | - | 795 W/m² | - |
| 1777658097 | 13.89° C | 82% | 1016.1 hPa | 0 mm | - | 545 W/m² | - |
| 1777657197 | 13.89° C | 81% | 1016.1 hPa | 0 mm | - | 385 W/m² | - |
| 1777656297 | 12.78° C | 86% | 1016.1 hPa | 0 mm | - | 707 W/m² | - |
| 1777655397 | 12.22° C | 87% | 1016.1 hPa | 0 mm | - | 341 W/m² | - |
| 1777654497 | 12.22° C | 86% | 1015.9 hPa | 0 mm | - | 265 W/m² | - |
| 1777653597 | 11.11° C | 88% | 1016 hPa | 0 mm | - | 691 W/m² | - |
| 1777652697 | 10.56° C | 89% | 1016 hPa | 0 mm | - | 621 W/m² | - |
* Rain latest hour (hover to see other rain measurements)
** Current wind speed in m/s (hover to see current wind gust speed)